[Iaude] MPEC J235: 2024 JG8 [a=1.80,e=0.43,i=2.5,H=26.9]
    mpec at cfa.harvard.edu 
    mpec at cfa.harvard.edu
       
    Thu May  9 19:12:03 EDT 2024
    
    
  
M.P.E.C. 2024-J235                                  Issued 2024 May 9, 23:09 UT
     The Minor Planet Electronic Circulars contain information on unusual
         minor planets, routine data on comets and natural satellites,
         and occasional editorial announcements.  They are published
    on behalf of Division F of the International Astronomical Union by the
          Minor Planet Center, Smithsonian Astrophysical Observatory,
                          Cambridge, MA 02138, U.S.A.
			  
             Prepared using the Tamkin Foundation Computer Network
                              MPC at CFA.HARVARD.EDU
            URL https://www.minorplanetcenter.net/    ISSN 1523-6714
                                    2024 JG8                                    
Observations:
     K24J08G* C2024 05 08.26796912 03 37.111+00 00 54.95         21.40wXEJ235F51
     K24J08G  C2024 05 08.27838212 03 41.493+00 01 17.65         21.20wXEJ235F51
     K24J08G  C2024 05 08.28883612 03 45.889+00 01 40.42         21.63wXEJ235F51
     K24J08G  C2024 05 08.41638912 04 40.638+00 06 20.33         21.35GVEJ235F52
     K24J08G  C2024 05 08.41704012 04 40.933+00 06 21.79         21.52GVEJ235F52
     K24J08G 1C2024 05 08.86107 12 08 50.91 +00 21 36.2          21.7 VXEJ235033
     K24J08G 1C2024 05 08.86321 12 08 51.95 +00 21 41.1          21.3 VXEJ235033
     K24J08G 1C2024 05 08.86534 12 08 53.03 +00 21 46.3          21.4 VXEJ235033
     K24J08G 1C2024 05 08.86748 12 08 54.07 +00 21 51.1          21.3 VXEJ235033
     K24J08G KC2024 05 09.15474412 11 45.860+00 34 28.80         20.88GVEJ235I52
     K24J08G KC2024 05 09.15654012 11 46.790+00 34 33.00         21.08GVEJ235I52
     K24J08G KC2024 05 09.15833512 11 47.730+00 34 37.30         21.33GVEJ235I52
     K24J08G 1C2024 05 09.87461 12 19 23.93 +01 05 03.0          21.3 VXEJ235033
     K24J08G 1C2024 05 09.87632 12 19 25.01 +01 05 07.6          21.4 VXEJ235033
     K24J08G 1C2024 05 09.87803 12 19 26.09 +01 05 12.4          21.5 VXEJ235033
     K24J08G 1C2024 05 09.87975 12 19 27.14 +01 05 17.1          21.3 VXEJ235033
     K24J08G 1C2024 05 09.88174 12 19 28.38 +01 05 22.4          21.4 VXEJ235033
Observer details:
033 Karl Schwarzschild Observatory, Tautenburg.  Observers S. Melnikov, C.
    Hogner, F. Ludwig, M. Hartmann, B. Stecklum.  Measurer B. Stecklum.
    1.34-m f/3 Schmidt + CCD.
F51 Pan-STARRS 1, Haleakala.  Observers J. Herman, T. Lowe, P. Minguez, A.
    Schultz, I. Smith.  Measurers K. Chambers, T. de Boer, J. Fairlamb, H.
    Gao, M. Huber, C.-C. Lin, E. Magnier, Y. Ramanjooloo, R. Wainscoat, R.
    Weryk.  1.8-m Ritchey-Chretien + CCD.
F52 Pan-STARRS 2, Haleakala.  Observers J. Herman, T. Lowe, P. Minguez, A.
    Schultz, I. Smith.  Measurers K. Chambers, T. de Boer, J. Fairlamb, H.
    Gao, M. Huber, C.-C. Lin, E. Magnier, Y. Ramanjooloo, R. Wainscoat, R.
    Weryk.  1.8-m Ritchey-Chretien + CCD.
I52 Steward Observatory, Mt. Lemmon Station.  Observer H. Groeller.  Measurers
    T. Beuden, V. F. Carvajal, D. Fay, J. B. Fazekas, D. C. Fuls, A. R. Gibbs,
    A. D. Grauer, H. Groeller, J. K. Hogan, R. A. Kowalski, S. M. Larson, G.
    J. Leonard, D. Rankin, R. L. Seaman, F. C. Shelly, K. W. Wierzchos.  1.0-m
    prime focus + CCD.
Orbital elements:
2024 JG8                                                 Earth MOID = 0.0158 AU
Epoch 2024 Mar. 31.0 TT = JDT 2460400.5                 Veres                   
M 338.76070              (2000.0)            P               Q                  
n   0.40781729     Peri.   15.96987     -0.47100087     +0.88155873             
a   1.8009112      Node   225.94344     -0.81410925     -0.44828716             
e   0.4315254      Incl.    2.53757     -0.33968267     -0.14796222             
P   2.42           H   26.92          G   0.15           U   8                  
Residuals in seconds of arc
240508 F51  0.2-  0.1-    240508 033  0.5+  0.1+    240509 033  0.2-  0.3+
240508 F51  0.0   0.0     240508 033  0.6+  0.2+    240509 033  0.2+  0.1+
240508 F51  0.2+  0.1+    240508 033  0.1+  0.1-    240509 033  0.5+  0.2+
240508 F52  0.1-  0.0     240509 I52  0.3-  0.2+    240509 033  0.3+  0.0
240508 F52  0.0   0.0     240509 I52  0.1-  0.1-    240509 033  0.4+  0.2-
240508 033  1.0+  0.2+    240509 I52  0.2+  0.2-
Ephemeris:
2024 JG8                 a,e,i = 1.80, 0.43, 3                   q = 1.0238
Date    TT    R. A. (2000) Decl.     Delta      r    Elong.  Phase     V
2024 04 09    11 13 41.9 -06 03 45   0.1414  1.1271   150.8    25.7    24.1
...
2024 04 24    11 15 35.8 -04 12 49   0.08584 1.0699   136.8    40.0    23.3
...
2024 05 02    11 30 32.4 -02 31 57   0.05816 1.0478   132.3    45.4    22.6
...
2024 05 08    12 01 20.1 -00 07 14   0.03830 1.0357   132.8    45.7    21.7
2024 05 09    12 10 11.3 +00 30 19   0.03514 1.0341   133.6    45.0    21.4
2024 05 10    12 20 52.7 +01 14 24   0.03205 1.0326   134.7    44.0    21.2
...
2024 05 16    14 45 40.6 +09 31 42   0.01728 1.0260   149.2    30.3    19.5
...
2024 05 24    19 56 26.4 +11 50 05   0.02651 1.0238   114.2    64.4    21.4
...
2024 06 08    21 32 03.6 +07 15 56   0.07382 1.0404   108.2    68.0    23.7
M. P. C. Staff               (C) Copyright 2024 MPC           M.P.E.C. 2024-J235
    
    
More information about the Iaude
mailing list